Language selection

Features

My Weather Profile Weather Topics  | 

Central Brevoort - southern half: Past 24 Hour Conditions

 

Mary's Harbour

06:30 PM NDT 16 April 2021
Disclaimer

This table is a summary of hourly weather conditions for the past 24 hours.
Please note that these observations might not always be representative of weather conditions over their associated marine area.

Date / Time
(NDT)
Wind(knots) Conditions Visibility(km) Pressure(kPa) Air tempC) Relative humidity(%) Dew pointC) Wind Chill
16 April 2021
18:30 E 9 Sunny 16 102.3 -2 71 -6 -7
17:30 E 9 Sunny 16 102.2 -1 66 -7 -6
16:30 E 9 Sunny 16 102.2 -1 63 -7 -6
15:30 E 8 Sunny 16 102.3 0 56 -8 -4
14:30 E 7 Sunny 16 102.3 0 59 -8 -5
13:30 E 7 Sunny 16 102.3 -1 59 -8 -5
12:30 ENE 3 Cloudy 16 102.4 -1 59 -8 -3
11:30 NNW 3 Cloudy 16 102.4 -2 58 -9 -4
10:30 N 6 Cloudy 16 102.4 -2 60 -9 -6
9:30 NNW 6 Cloudy 16 102.5 -3 67 -8 -7
8:30 N 9 gust 15 Cloudy 16 102.4 -3 72 -8 -9
7:30 N 9 Cloudy 16 102.4 -4 76 -7 -9
6:30 N 8 Cloudy 16 102.4 -4 77 -7 -9
5:30 N 11 gust 16 Cloudy 16 102.4 -3 76 -7 -10
4:30 N 9 Cloudy 16 102.4 -3 79 -6 -9
3:30 NNW 11 gust 16 Cloudy 16 102.4 -3 82 -6 -9
2:30 NNW 9 Mostly Cloudy 16 102.4 -3 84 -5 -9
1:30 N 9 Partly Cloudy 16 102.4 -3 83 -6 -9
0:30 N 7 Mostly Cloudy 16 102.4 -3 81 -5 -7
15 April 2021
23:30 N 6 Mostly Cloudy 16 102.5 -2 84 -5 -6
22:30 N 8 Clear 16 102.5 -2 85 -4 -7
21:30 N 10 gust 17 Mainly Clear 16 102.5 -2 80 -5 -7
20:30 NNE 9 gust 18 Clear 16 102.4 -1 82 -4 -6
19:30 NNE 11 gust 19 Mainly Sunny 16 102.4 -1 79 -4 -7
18:30 NNE 11 gust 22 Mostly Cloudy 16 102.4 0 71 -5 -6

Zoom-in to make a selection

Map of Atlantic - Labrador marine weather areas Kangiqsualujjuaq Airport Cape Kakkiviak Cape Kiglapait Cartwright Airport CFB Goose Bay Hopedale Mary's Harbour Nain Airport Makkovik Airport Saglek Tukialik Bay
Legend:
buoy Buoy
land station Land Station

Atlantic - Labrador Area

Another Region

What we are doing

Date modified: